Regional Weather Roundup
Issued by NWS

Home | Current Version | Previous Version | Graphics & Text | Print | Product List | Glossary On
Versions: 1 2 3 4 5 6 7 8 9 10 11 12 13 14 15 16 17 18 19 20 21 22 23 24 25 26 27 28 29 30 31 32 33 34 35 36 37 38 39 40 41 42 43 44 45 46 47 48 49 50
000
ASUS43 KFSD 071802
RWRSD

WEATHER ROUNDUP FOR SOUTH DAKOTA
NATIONAL WEATHER SERVICE SIOUX FALLS SD
100 PM CDT TUE JUL 07 2015

NOTE: "FAIR" INDICATES FEW OR NO CLOUDS BELOW 12,000 FEET WITH NO
SIGNIFICANT WEATHER AND/OR OBSTRUCTIONS TO VISIBILITY.


SDZ001>005-009-010-012>017-071900-
NORTHWEST AND NORTH CENTRAL SOUTH DAKOTA

CITY           SKY/WX    TMP DP  RH WIND       PRES   REMARKS
BUFFALO          N/A     76  56  49 SE15      30.01F
FAITH            N/A     74  56  53 SE20G25   30.09F
MOBRIDGE       SUNNY     73  55  53 SE16      30.12F
$$

SDZ012>016-024>037-041>051-057-063-072>074-071900-
SOUTHWEST AND SOUTH CENTRAL SOUTH DAKOTA

CITY           SKY/WX    TMP DP  RH WIND       PRES   REMARKS
RAPID CTY ARPT PTSUNNY   70  59  68 S15G24    30.11F HAZE
PIERRE         SUNNY     70  57  63 SE15      30.13F
CUSTER         CLOUDY    60  52  74 S8        30.20F HAZE
ELLSWORTH AFB  PTSUNNY   71  59  64 S21       30.09F
PHILIP         MOSUNNY   75  57  53 SE16      30.11F
PINE RIDGE     CLOUDY    69  55  60 S15       30.15F
WINNER         FAIR      71  56  58 SE13      30.17F
$$

SDZ004>011-016>023-039-040-071900-
NORTHEAST SOUTH DAKOTA

CITY           SKY/WX    TMP DP  RH WIND       PRES   REMARKS
ABERDEEN       SUNNY     68  43  40 E8        30.18F
WATERTOWN      SUNNY     65  45  48 VRB5      30.20F
BROOKINGS      MOSUNNY   63  45  51 SE8       30.22F
SISSETON         N/A     67  44  43 S8        30.18F
$$

SDZ017-020-022-023-036>040-048>070-071900-
SOUTHEAST SOUTH DAKOTA

CITY           SKY/WX    TMP DP  RH WIND       PRES   REMARKS
SIOUX FALLS    PTSUNNY   66  49  54 VRB7      30.21S
HURON          SUNNY     67  46  47 SE8       30.18F
MITCHELL       SUNNY     68  51  54 E8        30.20F
YANKTON        MOSUNNY   64  48  55 N5        30.18F
$$

ABBREVIATIONS USED IN REMARKS
   TC - TEMPERATURE IN CELSIUS
  WCI - WIND CHILL INDEX
   HX - HEAT INDEX
  VSB - VISIBILITY



USA.gov is the U.S. government's official web portal to all federal, state and local government web resources and services.